Weather History for Traverse City, MI

Change the Weather History Date:

Wednesday, June 26, 2013

  Actual Average Record
Temperature  
Mean Temperature 74 °F 67 °F  
Max Temperature 87 °F 79 °F 102 °F (1901)
Min Temperature 60 °F 56 °F 36 °F (1982)
Degree Days  
Heating Degree Days 0 2  
Month to date heating degree days 102 106  
Since 1 June heating degree days 102 106  
Since 1 July heating degree days 7077 7542  
Cooling Degree Days 9 4  
Month to date cooling degree days 71 63  
Year to date cooling degree days 113 83  
Since 1 June cooling degree days 71 63  
Growing Degree Days 24 (Base 50)    
Moisture  
Dew Point 64 °F    
Average Humidity 71    
Maximum Humidity 97    
Minimum Humidity 45    
Precipitation  
Precipitation 0.00 in 0.12 in 1.90 in (1969)
Month to date precipitation 1.25 2.71  
Year to date precipitation 13.63 14.26  
Sea Level Pressure  
Sea Level Pressure 29.78 in    
Wind  
Wind Speed 3 mph (NNE)    
Max Wind Speed 12 mph    
Max Gust Speed 14 mph    
Visibility 10 miles    
Events      
T = Trace of Precipitation, MM = Missing Value Source: NWS Daily Summary

Daily Weather History Graph

Daily Weather History Graph

Search for Another Location

Airport:

Trip Planner

Search our weather history database for the weather conditions in past years. The results will help you decide how hot, cold, wet, or windy it might be!

Date:

Astronomy

Jun. 26, 2013 Rise Set
Actual Time 5:58 AM EDT 9:32 PM EDT
Civil Twilight 5:21 AM EDT 10:09 PM EDT
Nautical Twilight 4:32 AM EDT 10:58 PM EDT
Astronomical Twilight 3:27 AM EDT 12:02 AM EDT
Moon 11:43 PM EDT (6/26) 9:59 AM EDT (6/26)
Length of Visible Light 16h 48m
Length of Day
15h 33m
Waning Gibbous, 85% of the Moon is Illuminated
Jun 26
Waning Gibbous
Jun 30
Last Quarter
Jul 8
New
Jul 15
First Quarter
Jul 22
Full

Hourly Weather History & Observations

Time (EDT) Temp. Heat Index Dew Point Humidity Pressure Visibility Wind Dir Wind Speed Gust Speed Precip Events Conditions
12:53 AM 66.9 °F - 63.0 °F 87% 29.81 in 10.0 mi Calm Calm - N/A   Clear
1:53 AM 64.0 °F - 62.1 °F 93% 29.82 in 10.0 mi Calm Calm - N/A   Clear
2:53 AM 63.0 °F - 61.0 °F 93% 29.81 in 10.0 mi Calm Calm - N/A   Clear
3:53 AM 64.9 °F - 62.1 °F 90% 29.81 in 10.0 mi SW 3.5 mph - N/A   Clear
4:53 AM 63.0 °F - 61.0 °F 93% 29.79 in 10.0 mi Calm Calm - N/A   Clear
5:53 AM 61.0 °F - 59.0 °F 93% 29.78 in 7.0 mi Calm Calm - N/A   Clear
6:53 AM 63.0 °F - 61.0 °F 93% 29.80 in 10.0 mi Calm Calm - N/A   Partly Cloudy
7:53 AM 68.0 °F - 63.0 °F 84% 29.81 in 10.0 mi Calm Calm - N/A   Partly Cloudy
8:53 AM 72.0 °F - 66.0 °F 81% 29.81 in 10.0 mi Calm Calm - N/A   Scattered Clouds
9:53 AM 75.9 °F - 64.9 °F 69% 29.81 in 10.0 mi Calm Calm - N/A   Scattered Clouds
10:53 AM 80.1 °F 81.9 °F 64.9 °F 60% 29.80 in 10.0 mi Calm Calm - N/A   Scattered Clouds
11:53 AM 82.9 °F 84.6 °F 64.9 °F 54% 29.79 in 10.0 mi North 4.6 mph - N/A   Mostly Cloudy
12:53 PM 82.0 °F 83.8 °F 64.9 °F 56% 29.77 in 10.0 mi NNE 9.2 mph - N/A   Mostly Cloudy
1:53 PM 84.0 °F 85.4 °F 64.0 °F 51% 29.76 in 10.0 mi NNE 8.1 mph - N/A   Mostly Cloudy
2:53 PM 86.0 °F 86.8 °F 63.0 °F 46% 29.74 in 10.0 mi NNE 8.1 mph - N/A   Mostly Cloudy
3:53 PM 82.9 °F 84.4 °F 64.0 °F 53% 29.73 in 10.0 mi NE 8.1 mph - N/A   Mostly Cloudy
4:53 PM 82.0 °F 84.1 °F 66.0 °F 58% 29.74 in 10.0 mi NW 8.1 mph - N/A   Mostly Cloudy
5:53 PM 84.9 °F 87.6 °F 66.9 °F 55% 29.75 in 10.0 mi NNW 8.1 mph - N/A   Mostly Cloudy
6:53 PM 80.1 °F 82.1 °F 66.0 °F 62% 29.73 in 10.0 mi ENE 4.6 mph - N/A   Mostly Cloudy
7:53 PM 75.0 °F - 64.9 °F 71% 29.75 in 10.0 mi NE 5.8 mph - N/A   Mostly Cloudy
8:53 PM 72.0 °F - 64.9 °F 78% 29.75 in 10.0 mi NE 3.5 mph - N/A   Mostly Cloudy
9:53 PM 71.1 °F - 64.9 °F 81% 29.77 in 10.0 mi Calm Calm - N/A   Mostly Cloudy
10:53 PM 70.0 °F - 64.9 °F 84% 29.77 in 10.0 mi Calm Calm - N/A   Clear
11:53 PM 70.0 °F - 64.0 °F 81% 29.78 in 10.0 mi Calm Calm - N/A   Overcast